�������l�o���
Date,Time,MP-1(��Sv/h),MP-2(��Sv/h),MP-3(��Sv/h),MP-4(��Sv/h),MP-5(��Sv/h),MP-6(��Sv/h),MP-7(��Sv/h),MP-8(��Sv/h),����,����(m/s),���J
2020/05/18,00:00,0.722,1.043,0.682,1.273,0.911,0.405,0.708,0.665,�k��,3.0,��
2020/05/18,00:10,0.722,1.043,0.683,1.270,0.912,0.404,0.708,0.665,�k��,2.9,��
2020/05/18,00:20,0.722,1.043,0.683,1.274,0.912,0.404,0.708,0.666,�k��,2.0,��
2020/05/18,00:30,0.720,1.043,0.680,1.272,0.910,0.404,0.707,0.665,�k��,2.6,��
2020/05/18,00:40,0.720,1.044,0.683,1.274,0.910,0.405,0.709,0.665,�k�k��,2.3,��
2020/05/18,00:50,0.722,1.042,0.680,1.274,0.911,0.405,0.708,0.664,�k�k��,2.6,��
2020/05/18,01:00,0.722,1.041,0.681,1.271,0.909,0.405,0.709,0.666,�k,2.5,��
2020/05/18,01:10,0.721,1.043,0.682,1.272,0.910,0.404,0.709,0.663,�k�k��,3.4,��
2020/05/18,01:20,0.723,1.043,0.684,1.273,0.910,0.404,0.708,0.667,�k�k��,2.9,��
2020/05/18,01:30,0.722,1.042,0.683,1.273,0.913,0.404,0.709,0.665,�k�k��,2.9,��
2020/05/18,01:40,0.721,1.042,0.683,1.271,0.912,0.405,0.708,0.665,�k,2.2,��
2020/05/18,01:50,0.723,1.042,0.683,1.272,0.911,0.405,0.709,0.667,�k��,1.7,��
2020/05/18,02:00,0.723,1.043,0.682,1.274,0.910,0.405,0.709,0.665,�k�k��,0.8,��
2020/05/18,02:10,0.721,1.044,0.682,1.270,0.910,0.405,0.707,0.665,�k,1.1,��
2020/05/18,02:20,0.721,1.043,0.681,1.270,0.911,0.405,0.708,0.666,�k��,1.4,��
2020/05/18,02:30,0.720,1.042,0.682,1.272,0.910,0.404,0.708,0.667,�k�k��,1.5,��
2020/05/18,02:40,0.721,1.042,0.683,1.273,0.907,0.405,0.708,0.666,�k,1.5,��
2020/05/18,02:50,0.722,1.041,0.681,1.274,0.910,0.404,0.709,0.666,-,CALM,��
2020/05/18,03:00,0.722,1.041,0.683,1.271,0.910,0.405,0.709,0.667,���k��,1.1,��
2020/05/18,03:10,0.724,1.043,0.682,1.271,0.912,0.405,0.706,0.667,�k�k��,1.5,��
2020/05/18,03:20,0.723,1.043,0.683,1.275,0.908,0.404,0.707,0.665,�k�k��,0.6,��
2020/05/18,03:30,0.723,1.041,0.683,1.270,0.910,0.404,0.709,0.667,�k�k��,1.1,��
2020/05/18,03:40,0.721,1.040,0.681,1.272,0.910,0.404,0.708,0.666,���k��,0.9,��
2020/05/18,03:50,0.719,1.041,0.683,1.274,0.910,0.405,0.708,0.668,���k��,0.8,��
2020/05/18,04:00,0.721,1.042,0.681,1.271,0.910,0.406,0.709,0.666,���쐼,1.2,��
2020/05/18,04:10,0.723,1.042,0.683,1.270,0.910,0.404,0.708,0.667,���k��,1.1,��
2020/05/18,04:20,0.721,1.043,0.682,1.271,0.909,0.404,0.706,0.665,���쐼,1.5,��
2020/05/18,04:30,0.722,1.040,0.682,1.271,0.910,0.404,0.709,0.665,���쐼,1.1,��
2020/05/18,04:40,0.720,1.042,0.684,1.274,0.909,0.404,0.708,0.666,���k��,0.9,��
2020/05/18,04:50,0.722,1.041,0.683,1.271,0.911,0.405,0.708,0.668,�k�k��,0.9,��
2020/05/18,05:00,0.724,1.043,0.682,1.271,0.909,0.405,0.708,0.665,���k��,1.2,��
2020/05/18,05:10,0.723,1.043,0.680,1.273,0.910,0.405,0.708,0.667,���k��,1.7,��
2020/05/18,05:20,0.723,1.043,0.683,1.275,0.910,0.404,0.708,0.665,���k��,1.7,��
2020/05/18,05:30,0.721,1.041,0.682,1.271,0.910,0.404,0.708,0.665,�k��,1.9,��
2020/05/18,05:40,0.721,1.042,0.681,1.270,0.910,0.404,0.708,0.666,���k��,1.5,��
2020/05/18,05:50,0.721,1.043,0.684,1.272,0.910,0.406,0.709,0.666,���k��,1.7,��
2020/05/18,06:00,0.723,1.043,0.682,1.274,0.910,0.405,0.707,0.667,���k��,2.0,��
2020/05/18,06:10,0.722,1.044,0.683,1.271,0.910,0.406,0.709,0.668,��,1.4,��
2020/05/18,06:20,0.722,1.043,0.684,1.271,0.913,0.404,0.708,0.666,��,1.5,��
2020/05/18,06:30,0.722,1.043,0.683,1.273,0.912,0.406,0.709,0.666,�쐼,1.2,��
2020/05/18,06:40,0.721,1.041,0.684,1.272,0.911,0.405,0.708,0.666,��,0.6,��
2020/05/18,06:50,0.722,1.043,0.683,1.273,0.909,0.405,0.709,0.666,�k,0.6,��
2020/05/18,07:00,0.721,1.042,0.684,1.272,0.910,0.403,0.707,0.665,�k�k��,0.9,��
2020/05/18,07:10,0.723,1.043,0.683,1.273,0.909,0.405,0.708,0.666,-,CALM,��
2020/05/18,07:20,0.722,1.041,0.683,1.272,0.910,0.404,0.707,0.666,�k�k��,0.9,��
2020/05/18,07:30,0.721,1.042,0.683,1.272,0.909,0.405,0.708,0.665,��쓌,0.6,��
2020/05/18,07:40,0.723,1.043,0.682,1.273,0.911,0.404,0.708,0.666,��쓌,1.4,��
2020/05/18,07:50,0.723,1.042,0.683,1.272,0.909,0.404,0.707,0.663,��쓌,1.5,��
2020/05/18,08:00,0.718,1.043,0.681,1.273,0.910,0.403,0.708,0.663,�쓌,2.0,��
2020/05/18,08:10,0.721,1.038,0.682,1.271,0.910,0.403,0.707,0.664,���쓌,1.7,��
2020/05/18,08:20,0.720,1.035,0.681,1.272,0.909,0.403,0.706,0.664,��,1.5,��
2020/05/18,08:30,0.721,1.037,0.679,1.271,0.905,0.403,0.708,0.665,���쓌,1.7,��
2020/05/18,08:40,0.718,1.036,0.677,1.272,0.905,0.403,0.706,0.665,���쓌,1.9,��
2020/05/18,08:50,0.720,1.036,0.672,1.272,0.907,0.402,0.705,0.662,���쓌,2.0,��
2020/05/18,09:00,0.721,1.034,0.671,1.273,0.908,0.404,0.706,0.663,���쓌,2.0,��
2020/05/18,09:10,0.719,1.034,0.670,1.271,0.908,0.404,0.706,0.664,���쓌,2.3,��
2020/05/18,09:20,0.720,1.031,0.677,1.272,0.908,0.404,0.707,0.663,���쓌,2.0,��
2020/05/18,09:30,0.719,1.034,0.676,1.272,0.907,0.404,0.705,0.663,��,1.7,��
2020/05/18,09:40,0.721,1.036,0.676,1.271,0.908,0.403,0.706,0.664,���쓌,2.0,��
2020/05/18,09:50,0.721,1.034,0.675,1.272,0.906,0.403,0.705,0.664,���쓌,1.5,��
2020/05/18,10:00,0.721,1.034,0.672,1.274,0.908,0.404,0.707,0.665,���쓌,2.0,��
2020/05/18,10:10,0.722,1.032,0.673,1.272,0.907,0.403,0.708,0.663,�쓌,1.5,��
2020/05/18,10:20,0.721,1.031,0.675,1.273,0.904,0.404,0.706,0.662,���쓌,1.2,��
2020/05/18,10:30,0.722,1.032,0.674,1.274,0.907,0.404,0.705,0.663,���쓌,2.0,��
2020/05/18,10:40,0.720,1.035,0.674,1.272,0.907,0.404,0.705,0.664,���쓌,1.7,��
2020/05/18,10:50,0.720,1.032,0.675,1.269,0.905,0.404,0.706,0.664,��,2.0,��
2020/05/18,11:00,0.720,1.034,0.673,1.272,0.907,0.405,0.704,0.663,���쓌,2.0,��
2020/05/18,11:10,0.722,1.032,0.674,1.271,0.908,0.403,0.706,0.662,��,1.5,��
2020/05/18,11:20,0.718,1.031,0.674,1.273,0.907,0.404,0.707,0.664,���쓌,1.9,��
2020/05/18,11:30,0.720,1.032,0.672,1.271,0.906,0.405,0.707,0.663,���쓌,1.5,��
2020/05/18,11:40,0.720,1.033,0.674,1.273,0.906,0.405,0.706,0.662,�쓌,0.9,��
2020/05/18,11:50,0.722,1.033,0.674,1.269,0.908,0.404,0.708,0.663,�쓌,2.2,��
2020/05/18,12:00,0.720,1.036,0.673,1.272,0.905,0.404,0.706,0.664,��쓌,1.5,��
2020/05/18,12:10,0.720,1.034,0.675,1.272,0.908,0.404,0.706,0.662,��쓌,1.5,��
2020/05/18,12:20,0.722,1.035,0.674,1.273,0.906,0.404,0.705,0.664,��,2.0,��
2020/05/18,12:30,0.721,1.040,0.675,1.272,0.908,0.404,0.706,0.663,��쓌,2.2,��
2020/05/18,12:40,0.722,1.039,0.674,1.273,0.910,0.404,0.707,0.664,��,1.9,��
2020/05/18,12:50,0.723,1.034,0.673,1.275,0.905,0.403,0.708,0.662,��,2.3,��
2020/05/18,13:00,0.723,1.038,0.674,1.273,0.906,0.403,0.705,0.663,��쓌,1.5,��
2020/05/18,13:10,0.724,1.038,0.675,1.272,0.909,0.404,0.707,0.663,��,1.9,��
2020/05/18,13:20,0.724,1.037,0.674,1.271,0.909,0.404,0.707,0.664,��쓌,2.0,��
2020/05/18,13:30,0.723,1.038,0.674,1.275,0.910,0.404,0.707,0.664,��쓌,2.2,��
2020/05/18,13:40,0.722,1.036,0.675,1.273,0.908,0.405,0.707,0.664,��쓌,3.5,��
2020/05/18,13:50,0.722,1.037,0.675,1.274,0.908,0.403,0.707,0.664,��,3.4,��
2020/05/18,14:00,0.720,1.034,0.674,1.273,0.907,0.404,0.707,0.663,��,4.2,��
2020/05/18,14:10,0.720,1.035,0.675,1.271,0.907,0.405,0.707,0.663,��,3.9,��
2020/05/18,14:20,0.721,1.035,0.674,1.272,0.908,0.403,0.706,0.665,��,3.6,��
2020/05/18,14:30,0.721,1.035,0.674,1.273,0.908,0.404,0.707,0.664,��,3.5,��
2020/05/18,14:40,0.720,1.035,0.673,1.273,0.909,0.405,0.709,0.662,��,2.8,��
2020/05/18,14:50,0.722,1.035,0.674,1.271,0.909,0.405,0.708,0.664,��,2.6,��
2020/05/18,15:00,0.721,1.036,0.676,1.273,0.908,0.404,0.709,0.663,��,3.6,��
2020/05/18,15:10,0.721,1.037,0.677,1.272,0.909,0.406,0.707,0.665,��쓌,3.6,��
2020/05/18,15:20,0.721,1.039,0.676,1.273,0.909,0.404,0.708,0.662,��쓌,3.6,��
2020/05/18,15:30,0.723,1.037,0.676,1.272,0.907,0.405,0.707,0.663,��쓌,4.2,��
2020/05/18,15:40,0.724,1.038,0.676,1.273,0.908,0.405,0.708,0.664,��쓌,4.1,��
2020/05/18,15:50,0.723,1.038,0.676,1.273,0.906,0.404,0.707,0.663,��쓌,3.7,��
2020/05/18,16:00,0.723,1.039,0.677,1.272,0.906,0.404,0.707,0.664,��쓌,4.2,��
2020/05/18,16:10,0.723,1.041,0.677,1.272,0.907,0.405,0.707,0.665,��쓌,3.5,��
2020/05/18,16:20,0.721,1.042,0.676,1.272,0.908,0.405,0.708,0.664,��쓌,5.0,��
2020/05/18,16:30,0.722,1.039,0.676,1.272,0.909,0.406,0.709,0.662,��쓌,4.8,��
2020/05/18,16:40,0.721,1.041,0.676,1.274,0.907,0.405,0.708,0.664,��쓌,5.3,��
2020/05/18,16:50,0.722,1.040,0.676,1.270,0.907,0.405,0.708,0.663,��,5.3,��
2020/05/18,17:00,0.721,1.037,0.675,1.272,0.909,0.408,0.707,0.665,��,5.6,��
2020/05/18,17:10,0.722,1.045,0.676,1.271,0.907,0.405,0.708,0.664,��쓌,5.8,�L
2020/05/18,17:20,0.723,1.041,0.677,1.273,0.906,0.405,0.706,0.664,��,5.5,��
2020/05/18,17:30,0.721,1.042,0.678,1.272,0.908,0.404,0.707,0.663,��,5.4,��
2020/05/18,17:40,0.722,1.041,0.677,1.274,0.909,0.406,0.708,0.663,��,3.9,��
2020/05/18,17:50,0.722,1.042,0.675,1.273,0.909,0.406,0.706,0.663,��,3.8,��
2020/05/18,18:00,0.721,1.044,0.676,1.275,0.906,0.406,0.708,0.664,��,4.1,�L
2020/05/18,18:10,0.722,1.042,0.677,1.274,0.909,0.408,0.709,0.663,��쓌,4.9,�L
2020/05/18,18:20,0.722,1.042,0.676,1.271,0.910,0.408,0.708,0.663,��쓌,5.0,�L
2020/05/18,18:30,0.723,1.044,0.677,1.276,0.906,0.407,0.706,0.665,��,4.8,��
2020/05/18,18:40,0.723,1.044,0.678,1.272,0.909,0.407,0.708,0.666,��쓌,4.2,��
2020/05/18,18:50,0.723,1.044,0.678,1.275,0.910,0.406,0.708,0.665,��,3.9,��
2020/05/18,19:00,0.722,1.046,0.677,1.272,0.909,0.408,0.707,0.665,��,3.6,�L
2020/05/18,19:10,0.722,1.043,0.676,1.274,0.909,0.408,0.707,0.666,��쓌,2.2,�L
2020/05/18,19:20,0.722,1.043,0.676,1.274,0.909,0.407,0.708,0.667,��쐼,2.8,�L
2020/05/18,19:30,0.721,1.040,0.674,1.273,0.906,0.407,0.705,0.664,��쐼,1.9,�L
2020/05/18,19:40,0.722,1.038,0.674,1.271,0.904,0.407,0.707,0.665,��쐼,1.7,�L
2020/05/18,19:50,0.719,1.038,0.674,1.269,0.903,0.406,0.706,0.663,��쐼,2.2,�L
2020/05/18,20:00,0.718,1.036,0.673,1.271,0.903,0.406,0.704,0.664,��쐼,1.9,�L
2020/05/18,20:10,0.718,1.035,0.673,1.268,0.902,0.407,0.704,0.662,��쐼,2.5,�L
2020/05/18,20:20,0.716,1.030,0.673,1.269,0.898,0.406,0.703,0.662,��쐼,2.8,�L
2020/05/18,20:30,0.718,1.031,0.670,1.267,0.899,0.405,0.705,0.660,��쐼,2.9,�L
2020/05/18,20:40,0.715,1.028,0.670,1.264,0.898,0.407,0.704,0.660,��쐼,2.5,�L
2020/05/18,20:50,0.717,1.028,0.670,1.263,0.895,0.406,0.702,0.660,�쐼,2.0,�L
2020/05/18,21:00,0.715,1.027,0.670,1.265,0.893,0.405,0.702,0.660,�쐼,1.4,�L
2020/05/18,21:10,0.715,1.025,0.668,1.261,0.894,0.405,0.702,0.661,�쐼,0.8,�L
2020/05/18,21:20,0.716,1.025,0.669,1.260,0.894,0.405,0.703,0.660,���k��,0.6,�L
2020/05/18,21:30,0.713,1.023,0.667,1.259,0.893,0.406,0.702,0.660,-,CALM,�L
2020/05/18,21:40,0.714,1.020,0.668,1.256,0.892,0.403,0.702,0.657,-,CALM,�L
2020/05/18,21:50,0.710,1.015,0.666,1.255,0.886,0.405,0.701,0.656,-,CALM,�L
2020/05/18,22:00,0.709,1.015,0.666,1.251,0.885,0.405,0.700,0.659,���k��,0.6,�L
2020/05/18,22:10,0.709,1.014,0.665,1.250,0.881,0.404,0.700,0.657,�k,1.1,�L
2020/05/18,22:20,0.710,1.011,0.665,1.245,0.882,0.403,0.698,0.657,�k�k��,1.5,�L
2020/05/18,22:30,0.706,1.008,0.664,1.243,0.881,0.403,0.697,0.658,�k�k��,2.2,�L
2020/05/18,22:40,0.706,1.005,0.663,1.239,0.877,0.404,0.697,0.656,�k,2.3,�L
2020/05/18,22:50,0.703,1.002,0.662,1.236,0.876,0.403,0.696,0.656,�k,2.5,�L
2020/05/18,23:00,0.704,1.002,0.661,1.233,0.876,0.401,0.696,0.655,�k,2.9,�L
2020/05/18,23:10,0.703,0.999,0.660,1.230,0.874,0.401,0.697,0.654,�k�k��,3.1,�L
2020/05/18,23:20,0.701,0.996,0.659,1.228,0.871,0.401,0.694,0.653,�k�k��,3.5,�L
2020/05/18,23:30,0.700,0.995,0.658,1.223,0.869,0.400,0.695,0.654,�k�k��,3.4,�L
2020/05/18,23:40,0.698,0.992,0.659,1.222,0.871,0.400,0.695,0.652,�k,3.3,�L
2020/05/18,23:50,0.700,0.993,0.658,1.224,0.868,0.401,0.693,0.652,�k,3.5,�L
